Simultaneous Nadir Overpasses (SNOs) Predictions

Prediction of SNOs between GOES-14 and NOAA-20 Satellite Orbit:

Table of predicted SNOs for the next 14.0 days since TLE Epoch: 5/24/2019
Index Date Time (GOES-14) GOES-14 Lat,Lon NOAA-20 Lat,Lon Distance(km) Time Diff (sec)
1 05/24/2019 20:36:23 -0.05,-104.51 0.00,-107.52 335.77 80
2 05/25/2019 20:14:45 -0.07,-104.50 0.28,-102.83 190.41 80
3 05/27/2019 08:36:33 0.05,-104.41 0.89,-108.10 421.27 80
4 05/28/2019 08:20:28 0.06,-104.41 -0.16,-103.57 96.30 80
5 05/29/2019 20:42:25 -0.03,-104.53 -1.00,-108.88 496.01 80
6 05/30/2019 20:20:59 -0.05,-104.53 -0.01,-104.35 20.86 80
7 06/02/2019 08:24:01 0.03,-104.43 0.19,-105.08 74.87 80
8 06/03/2019 08:07:56 0.04,-104.43 -0.85,-100.56 442.36 80
9 06/04/2019 20:27:13 -0.01,-104.55 -0.29,-105.87 150.12 80
10 06/05/2019 20:11:07 -0.03,-104.54 0.70,-101.33 366.37 80
11 06/07/2019 08:30:15 0.00,-104.42 0.47,-106.60 247.93 80




NCC Satellite Simultaneous Nadir Overpasses (SNOs) Prediction Service
